Location: *
(49.3500°N, 12.6000°E)
Time: 10:21:24
(UTC+00:00)

SKYMED 2 - Pass Details

Date: 18 October 2019
Orbit: 621 x 623 km, 97.9° (Epoch: 12 November)

Event Time Altitude Azimuth Distance (km) Brightness Sun altitude
Rises 16:42:58 0° 21° (NNE) 2,915 6.7 -5.4°
Reaches altitude 10° 16:45:21 10° 30° (NNE) 2,003 5.8 -5.8°
Maximum altitude 16:49:20 34° 96° (E) 1,029 4.2 -6.5°
Drops below altitude 10° 16:53:16 10° 162° (SSE) 1,987 6.1 -7.1°
Sets 16:55:37 0° 172° (S) 2,888 7.0 -7.5°
